This is the latest recevied weather packets stored in our database for station/object OK1ZDJ-13. If no packets are shown the sender has not sent any weather packets the latest 10 day(s).
| Time | Temp. | Humidity | Pressure | Rain* | Wind** | Luminosity | Snow |
|---|---|---|---|---|---|---|---|
| 1777921683 | 17.78° C | 57% | 1012.9 hPa | - | - | - | - |
| 1777921082 | 18.33° C | 57% | 1012.9 hPa | - | - | - | - |
| 1777920483 | 18.33° C | 56% | 1012.9 hPa | - | - | - | - |
| 1777919883 | 18.89° C | 53% | 1012.8 hPa | - | - | - | - |
| 1777919284 | 19.44° C | 52% | 1012.8 hPa | - | - | - | - |
| 1777918683 | 19.44° C | 52% | 1012.8 hPa | - | - | - | - |
| 1777918083 | 20° C | 51% | 1012.8 hPa | - | - | - | - |
| 1777917483 | 20.56° C | 49% | 1012.8 hPa | - | - | - | - |
| 1777916883 | 21.67° C | 48% | 1012.8 hPa | - | - | - | - |
| 1777916282 | 22.22° C | 45% | 1012.7 hPa | - | - | - | - |
| 1777915683 | 22.78° C | 43% | 1012.6 hPa | - | - | - | - |
| 1777915083 | 23.33° C | 40% | 1012.8 hPa | - | - | - | - |
| 1777914483 | 23.89° C | 40% | 1012.7 hPa | - | - | - | - |
| 1777913882 | 24.44° C | 37% | 1012.7 hPa | - | - | - | - |
| 1777913283 | 24.44° C | 36% | 1012.7 hPa | - | - | - | - |
| 1777912683 | 25° C | 36% | 1012.8 hPa | - | - | - | - |
| 1777912083 | 25° C | 34% | 1012.9 hPa | - | - | - | - |
| 1777911482 | 25° C | 38% | 1012.8 hPa | - | - | - | - |
| 1777910282 | 25° C | 35% | 1013 hPa | - | - | - | - |
| 1777909683 | 25° C | 34% | 1013 hPa | - | - | - | - |
| 1777909087 | 25.56° C | 35% | 1013 hPa | - | - | - | - |
| 1777908481 | 25.56° C | 34% | 1013.1 hPa | - | - | - | - |
| 1777907881 | 25.56° C | 32% | 1013.1 hPa | - | - | - | - |
| 1777907281 | 25.56° C | 29% | 1013.1 hPa | - | - | - | - |
| 1777906681 | 26.11° C | 28% | 1013.2 hPa | - | - | - | - |
* Rain since midnight (hover to see other rain measurements)
** Current wind speed in m/s (hover to see current wind gust speed)